Wind_Speed
9 10 10 11 11 10 9 8 7 6 6 6 6 6 6 7 8 9 10 11 12 12 13 14 15 15 16 16 17 18 18 18 18 18 18 19 20 20 20 20 20 20 20
9 10 10 11 11 10 9 8 6 6 5 5 5 6 6 7 7 9 9 10 11 12 13 14 15 15 16 16 17 18 18 18 18 19 19 19 20 21 21 21 20 22 21
9 9 10 10 11 10 8 7 6 6 5 5 5 5 6 6 7 8 9 10 11 12 13 14 15 15 15 17 17 18 18 18 18 18 19 20 21 22 21 22 23 23 23
8 9 9 10 10 9 8 7 6 6 5 4 4 5 5 5 6 7 9 10 11 13 13 14 14 15 15 16 17 17 18 18 18 18 19 20 22 22 23 24 24 24 24
8 8 9 9 9 9 8 7 6 5 5 4 4 4 4 4 5 7 8 9 10 12 13 14 14 15 15 16 17 17 18 18 18 17 17 18 20 21 23 25 25 25 25
7 8 8 8 9 8 8 7 6 6 5 4 4 3 3 4 5 6 7 9 10 11 13 14 15 15 16 16 17 17 17 17 17 17 17 18 19 20 21 24 25 26 26
6 7 8 8 9 8 8 7 6 6 5 4 4 3 3 4 4 5 6 8 9 10 12 13 14 15 16 16 17 17 17 18 17 17 17 18 18 19 21 23 24 25 26
6 7 8 8 8 8 8 8 7 6 5 5 4 3 3 3 3 4 5 6 7 9 11 12 13 15 15 16 16 16 16 18 19 18 17 18 18 19 20 21 23 24 25
6 7 8 8 9 9 8 8 7 7 6 5 5 4 3 3 3 3 4 5 6 7 9 10 12 13 15 15 16 15 15 17 18 18 18 19 19 20 21 21 23 24 25
6 6 7 8 9 9 9 9 8 7 7 6 5 4 4 3 3 3 3 4 5 6 8 9 11 12 14 15 16 16 15 16 17 18 19 19 20 20 20 22 23 24 26
6 6 7 8 8 8 9 9 8 8 7 7 6 5 4 4 3 3 2 2 3 5 6 7 10 11 13 14 15 16 16 16 17 19 19 19 19 19 20 21 22 25 26
6 6 7 7 8 8 8 8 8 8 8 7 7 6 5 4 4 3 2 2 2 3 4 6 7 9 12 13 14 15 16 16 17 18 19 20 20 20 20 21 21 23 25
5 5 6 6 7 8 8 8 8 8 8 8 7 6 5 4 4 3 3 2 2 2 3 4 6 7 9 11 13 15 15 16 17 17 18 19 20 20 20 20 21 22 23
4 4 5 6 6 7 7 8 8 8 8 8 8 7 6 5 5 4 4 3 3 4 4 4 6 7 8 9 11 14 15 16 16 17 18 19 20 20 21 21 21 22 23
4 4 5 5 6 6 7 7 8 8 8 7 8 7 6 6 5 5 5 4 4 5 5 5 6 7 8 10 11 13 14 16 17 17 18 19 20 20 21 22 22 23 23
3 4 4 5 5 6 7 7 7 7 7 7 7 7 7 6 7 6 6 6 5 5 6 6 7 8 8 10 11 13 14 16 17 17 18 18 20 21 22 24 24 24 25
4 4 4 5 5 6 6 6 7 7 7 7 7 7 7 7 7 8 7 7 7 7 7 8 8 9 10 10 11 13 14 16 17 18 19 20 21 21 22 23 25 26 27
5 5 5 5 5 6 7 7 7 7 7 7 8 8 9 9 8 9 8 8 8 9 9 9 10 10 11 12 12 14 14 15 17 19 20 21 22 23 23 24 25 26 27
7 6 6 6 6 7 7 8 8 8 8 8 9 10 10 10 10 10 10 10 10 11 11 11 11 11 12 13 14 15 16 17 18 19 21 22 24 25 24 25 26 27 28
8 8 8 7 8 8 8 9 9 10 10 10 11 12 12 12 12 12 12 12 13 13 13 13 13 13 13 14 15 16 17 18 20 21 22 23 25 26 27 27 28 29 30
9 9 9 9 9 10 10 11 11 12 12 13 13 14 14 14 14 14 14 15 15 15 15 15 15 15 16 16 17 18 19 20 21 22 23 25 26 28 29 29 30 31 32
11 10 10 11 11 12 12 13 14 14 15 15 16 16 16 16 16 16 17 17 17 17 18 18 18 19 19 19 19 20 21 22 23 24 25 27 28 29 30 32 33 34 35
11 12 12 13 13 14 15 15 16 17 18 18 18 19 19 19 19 19 19 19 20 20 21 21 21 21 22 22 23 23 24 25 26 27 29 29 31 32 33 34 35 36 36
13 14 14 15 16 16 17 18 19 20 20 21 21 22 22 22 22 22 22 22 23 24 24 24 25 25 25 26 26 27 28 28 29 31 32 33 34 35 35 37 38 38 40
15 15 16 17 18 19 20 21 22 23 23 24 24 24 24 24 24 25 25 26 26 27 27 28 28 28 29 29 30 31 31 32 33 34 35 36 37 38 39 39 40 41 41
17 17 18 19 20 21 23 24 25 26 26 26 26 26 27 27 28 28 28 29 29 30 30 31 31 32 33 33 34 34 35 36 36 37 38 39 40 41 41 41 42 42 43
Wind_Direction
336 339 340 338 338 336 332 328 321 310 299 286 272 259 251 245 239 236 234 230 228 224 222 221 220 222 221 219 219 219 219 219 218 218 219 219 216 213 214 215 216 212 208
339 342 343 343 342 339 335 332 325 316 308 295 278 263 254 247 240 236 235 232 229 225 223 222 222 223 224 223 222 221 221 222 222 222 223 223 221 217 217 216 213 210 208
341 343 344 345 345 343 339 335 330 321 312 300 284 270 259 250 243 239 238 235 232 229 226 224 223 224 225 225 224 223 225 226 226 226 225 226 225 221 219 213 212 211 210
340 341 342 345 348 349 346 342 337 330 323 310 293 280 269 257 248 244 240 236 234 233 231 228 226 226 226 226 224 225 226 227 228 229 229 227 225 221 218 215 212 210 210
341 344 346 348 350 351 353 352 348 341 334 321 306 292 280 263 251 247 242 237 234 233 232 230 229 226 225 226 226 226 226 227 227 228 227 223 221 219 217 214 212 211 210
347 351 355 356 356 357 0 358 354 354 351 337 319 304 292 278 263 256 247 241 237 233 232 231 231 228 227 228 228 228 227 226 226 225 225 221 219 218 214 210 212 213 211
357 0 2 1 1 4 5 2 358 360 0 354 340 318 301 288 277 263 251 243 238 236 233 231 231 230 230 230 229 229 228 225 223 222 222 221 218 214 212 209 209 210 209
7 9 7 6 7 9 10 8 5 5 4 1 352 335 311 300 289 270 254 244 238 236 233 231 232 233 231 230 230 228 228 224 222 221 220 220 218 213 211 207 207 208 209
14 14 14 13 14 15 16 16 16 12 9 6 0 351 340 330 315 283 264 249 239 234 234 235 234 232 230 228 227 225 225 219 218 221 221 220 218 215 214 212 212 214 214
14 16 15 15 16 18 20 22 23 21 16 13 11 5 357 348 339 318 283 258 246 242 240 238 236 231 229 229 229 226 224 220 220 219 222 223 221 219 217 219 221 221 220
10 13 14 14 17 19 21 23 23 22 18 18 18 15 7 0 350 337 318 286 260 250 247 243 240 235 232 232 232 228 227 226 223 222 223 223 223 223 224 222 222 221 222
10 15 15 15 19 20 20 21 22 22 20 22 23 19 14 10 7 359 346 332 302 264 255 250 245 241 236 235 232 230 229 229 227 226 226 224 225 226 227 224 221 220 224
359 9 15 17 19 22 24 23 22 21 23 24 25 22 18 15 11 6 355 342 323 292 267 259 255 249 243 239 236 233 233 234 234 234 230 228 229 228 227 225 223 224 227
350 1 9 13 17 22 23 23 23 23 23 22 21 20 21 19 13 1 352 340 324 309 287 277 267 261 256 251 242 238 237 236 237 236 233 232 231 230 231 231 233 233 233
335 345 357 1 10 16 17 17 18 20 20 20 19 18 16 10 5 360 351 337 322 308 299 293 282 274 269 261 253 244 241 240 239 238 238 238 236 236 237 238 238 238 240
325 327 335 344 353 1 4 5 9 12 13 13 15 14 8 4 357 348 342 336 327 316 304 297 291 281 275 268 261 252 249 247 244 242 241 241 241 244 243 242 241 241 242
309 316 321 328 333 341 349 355 359 0 2 2 0 359 359 354 347 342 336 332 327 320 314 305 291 286 281 277 269 260 255 252 250 248 247 246 246 248 248 247 248 248 248
293 295 303 315 326 334 343 347 347 346 347 348 346 345 345 342 338 336 331 325 323 320 314 307 296 289 284 280 274 267 262 258 255 253 253 253 253 253 252 251 252 252 253
283 285 293 301 311 321 331 337 337 338 337 336 335 334 332 330 326 326 323 318 316 315 312 305 299 294 288 282 276 271 266 263 260 257 256 256 257 258 258 256 257 257 257
279 281 286 292 300 308 314 321 326 328 326 325 326 325 324 323 319 316 315 312 310 309 308 305 301 298 292 285 280 275 270 267 264 262 260 259 260 260 261 260 260 260 260
274 277 281 286 293 299 304 309 313 316 316 315 316 316 315 314 314 311 310 308 305 304 303 301 297 297 293 288 283 279 275 271 268 266 265 264 264 263 261 262 262 262 261
274 275 279 284 288 293 297 301 304 306 308 308 308 307 307 306 305 305 304 302 300 299 299 297 294 293 293 289 286 283 279 276 274 271 269 269 268 267 265 264 263 262 262
276 278 283 285 287 290 293 296 298 301 302 303 302 302 301 300 300 300 299 299 297 296 296 295 293 292 291 288 286 285 283 280 278 275 273 272 270 269 267 265 265 265 263
278 281 284 287 289 291 292 294 296 298 299 300 299 299 297 296 295 295 296 296 295 294 294 293 292 291 290 289 287 285 283 282 280 278 276 274 273 271 269 267 266 266 265
280 283 286 288 290 292 293 295 296 296 297 297 297 296 295 294 292 292 292 293 294 293 292 292 291 290 289 288 287 286 285 283 282 280 278 277 275 273 271 270 268 267 265
280 284 286 289 292 293 294 295 296 296 295 295 295 294 294 293 292 291 291 291 291 291 291 291 291 291 290 289 288 287 286 284 283 282 280 279 277 275 273 271 270 268 267
Height
5876 5874 5872 5870 5868 5866 5864 5863 5861 5860 5860 5859 5859 5859 5859 5860 5860 5861 5862 5864 5865 5866 5867 5868 5870 5871 5873 5875 5877 5878 5880 5882 5883 5885 5886 5888 5890 5893 5895 5896 5898 5901 5905
5875 5873 5871 5869 5867 5865 5863 5861 5860 5859 5858 5858 5857 5857 5858 5858 5858 5859 5860 5862 5863 5864 5865 5866 5868 5869 5870 5872 5874 5876 5878 5879 5881 5882 5883 5885 5887 5889 5892 5893 5894 5897 5902
5874 5872 5870 5868 5866 5864 5862 5860 5859 5858 5857 5857 5856 5856 5856 5856 5857 5858 5858 5859 5860 5861 5863 5864 5865 5867 5868 5870 5872 5874 5875 5877 5878 5879 5879 5880 5882 5885 5888 5890 5893 5896 5900
5873 5871 5869 5867 5865 5863 5861 5859 5858 5857 5856 5855 5855 5855 5855 5855 5855 5856 5856 5857 5858 5859 5860 5862 5863 5864 5866 5867 5869 5871 5873 5874 5875 5875 5875 5874 5876 5880 5884 5887 5891 5894 5897
5872 5870 5868 5866 5864 5862 5860 5859 5857 5856 5855 5854 5854 5854 5854 5854 5854 5854 5854 5855 5856 5857 5858 5859 5860 5862 5863 5865 5867 5868 5870 5871 5872 5872 5871 5871 5872 5876 5879 5883 5887 5891 5894
5871 5870 5868 5866 5864 5862 5860 5858 5857 5855 5854 5853 5853 5853 5853 5852 5852 5853 5853 5853 5853 5854 5855 5856 5858 5860 5861 5862 5864 5865 5867 5868 5869 5870 5870 5871 5872 5874 5876 5880 5884 5887 5891
5871 5869 5868 5866 5864 5862 5860 5858 5856 5855 5854 5853 5852 5852 5852 5851 5851 5851 5851 5851 5852 5852 5853 5854 5856 5857 5858 5860 5861 5862 5863 5864 5866 5867 5869 5870 5872 5873 5874 5877 5880 5882 5887
5871 5869 5868 5866 5864 5862 5860 5858 5856 5855 5853 5852 5852 5851 5851 5851 5850 5849 5849 5850 5850 5851 5851 5852 5853 5855 5856 5857 5858 5859 5858 5860 5863 5865 5867 5869 5870 5872 5874 5876 5879 5882 5886
5871 5869 5867 5866 5864 5862 5860 5858 5856 5855 5853 5852 5851 5851 5850 5849 5849 5849 5848 5848 5849 5849 5850 5850 5851 5852 5853 5855 5856 5856 5856 5857 5860 5863 5865 5867 5869 5871 5873 5875 5878 5881 5884
5871 5869 5867 5866 5864 5862 5860 5858 5856 5855 5853 5852 5851 5850 5849 5849 5848 5848 5847 5847 5847 5848 5848 5849 5849 5850 5851 5852 5854 5854 5855 5856 5859 5861 5863 5865 5867 5869 5871 5873 5875 5878 5881
5871 5869 5867 5866 5864 5862 5860 5859 5857 5855 5854 5852 5851 5850 5849 5848 5847 5847 5847 5846 5846 5846 5847 5847 5847 5848 5849 5850 5851 5852 5854 5855 5857 5859 5861 5863 5865 5867 5869 5869 5870 5873 5877
5870 5869 5867 5866 5864 5863 5861 5859 5857 5856 5854 5853 5851 5850 5849 5848 5847 5847 5846 5846 5846 5846 5845 5846 5846 5846 5847 5848 5849 5851 5852 5854 5855 5857 5859 5860 5863 5864 5866 5866 5868 5871 5874
5870 5869 5867 5866 5864 5863 5861 5859 5858 5856 5855 5853 5852 5850 5849 5848 5847 5847 5846 5846 5845 5845 5845 5845 5844 5845 5845 5846 5847 5848 5850 5851 5853 5854 5856 5858 5860 5861 5862 5864 5866 5868 5871
5869 5868 5867 5866 5864 5863 5861 5860 5858 5856 5855 5854 5852 5851 5850 5849 5848 5847 5846 5845 5845 5845 5844 5844 5844 5843 5844 5844 5845 5846 5847 5849 5850 5852 5853 5855 5857 5858 5860 5862 5864 5866 5868
5868 5868 5867 5865 5864 5863 5861 5860 5858 5857 5855 5854 5853 5851 5850 5849 5848 5847 5846 5845 5845 5844 5843 5843 5842 5842 5842 5842 5843 5844 5845 5846 5848 5849 5851 5852 5854 5855 5857 5859 5860 5862 5864
5868 5867 5866 5865 5864 5863 5861 5860 5858 5857 5855 5854 5853 5852 5850 5849 5848 5847 5845 5844 5843 5843 5842 5841 5841 5841 5840 5840 5840 5841 5842 5843 5845 5846 5848 5849 5851 5852 5854 5855 5857 5858 5860
5867 5866 5865 5864 5863 5862 5861 5859 5858 5857 5856 5854 5853 5852 5850 5849 5848 5846 5845 5844 5843 5842 5841 5840 5839 5839 5838 5838 5838 5838 5839 5840 5841 5843 5844 5845 5847 5848 5849 5851 5852 5854 5855
5865 5864 5864 5863 5862 5861 5860 5859 5857 5856 5855 5854 5852 5851 5850 5848 5847 5846 5844 5843 5842 5840 5839 5838 5837 5836 5836 5836 5835 5835 5836 5836 5837 5838 5840 5841 5843 5844 5845 5846 5847 5848 5850
5863 5863 5862 5862 5861 5860 5859 5858 5856 5855 5854 5852 5851 5850 5848 5847 5846 5844 5843 5841 5840 5839 5837 5836 5835 5834 5833 5832 5832 5832 5832 5833 5833 5834 5835 5836 5837 5838 5839 5840 5841 5842 5843
5861 5860 5860 5860 5859 5858 5857 5856 5855 5853 5852 5851 5849 5848 5846 5845 5843 5842 5841 5839 5838 5836 5835 5834 5832 5831 5830 5829 5829 5828 5828 5829 5829 5830 5830 5831 5832 5833 5833 5834 5835 5836 5837
5858 5857 5857 5857 5856 5855 5854 5853 5852 5851 5850 5848 5847 5845 5844 5842 5841 5839 5838 5836 5835 5833 5832 5830 5829 5828 5827 5826 5825 5824 5824 5824 5824 5824 5825 5825 5825 5826 5827 5827 5828 5828 5829
5854 5854 5854 5853 5853 5852 5851 5850 5849 5848 5846 5845 5843 5842 5840 5839 5837 5835 5834 5832 5831 5829 5828 5826 5825 5823 5822 5821 5820 5819 5819 5818 5818 5818 5818 5818 5818 5818 5818 5819 5819 5820 5820
5850 5850 5850 5849 5849 5848 5847 5846 5845 5844 5842 5840 5839 5837 5835 5834 5832 5831 5829 5827 5826 5824 5823 5821 5819 5818 5816 5815 5814 5813 5812 5812 5811 5810 5810 5810 5810 5809 5809 5809 5810 5810 5810
5846 5846 5846 5845 5844 5843 5842 5841 5840 5839 5837 5835 5833 5831 5830 5828 5826 5824 5823 5821 5820 5818 5816 5815 5813 5811 5810 5808 5807 5806 5804 5804 5803 5801 5800 5800 5800 5799 5799 5799 5799 5799 5799
5842 5841 5841 5840 5839 5838 5836 5835 5834 5832 5830 5829 5827 5825 5823 5821 5819 5817 5816 5814 5812 5811 5809 5807 5805 5803 5801 5800 5798 5796 5795 5794 5793 5792 5790 5789 5788 5787 5787 5787 5787 5786 5786
5837 5836 5836 5834 5833 5832 5830 5829 5827 5825 5823 5821 5819 5817 5815 5813 5811 5809 5807 5805 5804 5802 5800 5798 5796 5794 5792 5790 5787 5785 5784 5782 5781 5780 5778 5776 5775 5773 5774 5774 5773 5773 5772